sat.trackr.live / text

‹ back to catalog

ICEYE-X59

NORAD 66752 · 2025-276CQ

PAYLOAD ACTIVE UNKNOWN

§ Identity

Operator
Country
GREC
Launch date
2025-11-28
Launch site
AFWTR
Launch vehicle
Mass (kg)
RCS (m²)

External: N2YO · Heavens-Above · Gunter

§ Orbital elements

Epoch: 2026-05-25T03:36:34.655904Z

Period
96.00 min
Inclination
97.4191°
Eccentricity
0.0002719
Mean motion
15.00031966 rev/d
Perigee alt
564.9 km
Apogee alt
568.7 km
Semi-major
6,944.9 km
B*
1.4492e-4
RAAN
217.4514°
Arg perigee
90.1056°
Mean anomaly
270.0480°
Rev number
2,681

§ Raw data

ICEYE-X591 66752U 25276CQ  26145.15040111  .00001748  00000+0  14492-3 0  99912 66752  97.4191 217.4514 0002719  90.1056 270.0480 15.00031966 26812

JSON: /api/v1/satellites/66752 · /tle

For live sub-satellite position, see the globe view (requires WebGL).

§ Visibility from observer

Set your observer location to see the next 7 days of passes ≥ 10°. The values pass through the URL so the page stays shareable.

No JS? Fill the form by hand. The geolocation button needs JavaScript.